Year,Month,Day,Hour,Minute,Value (Times are PST for temperature in C)
2015,06,21,00,00,13.20
2015,06,21,00,01,13.20
2015,06,21,00,02,13.10
2015,06,21,00,03,13.10
2015,06,21,00,04,13.10
2015,06,21,00,05,13.10
2015,06,21,00,06,13.10
2015,06,21,00,07,13.10
2015,06,21,00,08,13.10
2015,06,21,00,09,13.10
2015,06,21,00,10,13.20
2015,06,21,00,11,13.20
2015,06,21,00,12,13.30
2015,06,21,00,13,13.30
2015,06,21,00,14,13.40
2015,06,21,00,15,13.50
2015,06,21,00,16,13.50
2015,06,21,00,17,13.60
2015,06,21,00,18,13.60
2015,06,21,00,19,13.60
2015,06,21,00,20,13.60
2015,06,21,00,21,13.60
2015,06,21,00,22,13.70
2015,06,21,00,23,13.70
2015,06,21,00,24,13.70
2015,06,21,00,25,13.70
2015,06,21,00,26,13.70
2015,06,21,00,27,13.60
2015,06,21,00,28,13.60
2015,06,21,00,29,13.50
2015,06,21,00,30,13.50
2015,06,21,00,31,13.40
2015,06,21,00,32,13.40
2015,06,21,00,33,13.40
2015,06,21,00,34,13.50
2015,06,21,00,35,13.50
2015,06,21,00,36,13.50
2015,06,21,00,37,13.50
2015,06,21,00,38,13.50
2015,06,21,00,39,13.50
2015,06,21,00,40,13.60
2015,06,21,00,41,13.60
2015,06,21,00,42,13.60
2015,06,21,00,43,13.60
2015,06,21,00,44,13.70
2015,06,21,00,45,13.70
2015,06,21,00,46,13.70
2015,06,21,00,47,13.70
2015,06,21,00,48,13.80
2015,06,21,00,49,13.80
2015,06,21,00,50,13.80
2015,06,21,00,51,13.80
2015,06,21,00,52,13.80
2015,06,21,00,53,13.80
2015,06,21,00,54,13.80
2015,06,21,00,55,13.80
2015,06,21,00,56,13.80
2015,06,21,00,57,13.80
2015,06,21,00,58,13.80
2015,06,21,00,59,13.80
2015,06,21,01,00,13.80
2015,06,21,01,01,13.80
2015,06,21,01,02,13.80
2015,06,21,01,03,13.80
2015,06,21,01,04,13.80
2015,06,21,01,05,13.80
2015,06,21,01,06,13.80
2015,06,21,01,07,13.80
2015,06,21,01,08,13.90
2015,06,21,01,09,13.90
2015,06,21,01,10,13.90
2015,06,21,01,11,13.90
2015,06,21,01,12,13.90
2015,06,21,01,13,13.90
2015,06,21,01,14,13.90
2015,06,21,01,15,13.90
2015,06,21,01,16,13.90
2015,06,21,01,17,13.90
2015,06,21,01,18,13.90
2015,06,21,01,19,13.90
2015,06,21,01,20,13.90
2015,06,21,01,21,13.90
2015,06,21,01,22,13.90
2015,06,21,01,23,13.90
2015,06,21,01,24,13.90
2015,06,21,01,25,13.90
2015,06,21,01,26,13.90
2015,06,21,01,27,13.90
2015,06,21,01,28,13.90
2015,06,21,01,29,13.80
2015,06,21,01,30,13.80
2015,06,21,01,31,13.80
2015,06,21,01,32,13.80
2015,06,21,01,33,13.80
2015,06,21,01,34,13.80
2015,06,21,01,35,13.80
2015,06,21,01,36,13.80
2015,06,21,01,37,13.80
2015,06,21,01,38,13.80
2015,06,21,01,39,13.80
2015,06,21,01,40,13.80
2015,06,21,01,41,13.80
2015,06,21,01,42,13.90
2015,06,21,01,43,13.90
2015,06,21,01,44,13.90
2015,06,21,01,45,13.90
2015,06,21,01,46,13.90
2015,06,21,01,47,13.80
2015,06,21,01,48,13.80
2015,06,21,01,49,13.80
2015,06,21,01,50,13.80
2015,06,21,01,51,13.80
2015,06,21,01,52,13.80
2015,06,21,01,53,13.80
2015,06,21,01,54,13.80
2015,06,21,01,55,13.80
2015,06,21,01,56,13.80
2015,06,21,01,57,13.80
2015,06,21,01,58,13.80
2015,06,21,01,59,13.80
2015,06,21,02,00,13.80
2015,06,21,02,01,13.80
2015,06,21,02,02,13.80
2015,06,21,02,03,13.70
2015,06,21,02,04,13.70
2015,06,21,02,05,13.70
2015,06,21,02,06,13.70
2015,06,21,02,07,13.70
2015,06,21,02,08,13.70
2015,06,21,02,09,13.70
2015,06,21,02,10,13.70
2015,06,21,02,11,13.70
2015,06,21,02,12,13.70
2015,06,21,02,13,13.70
2015,06,21,02,14,13.70
2015,06,21,02,15,13.70
2015,06,21,02,16,13.70
2015,06,21,02,17,13.60
2015,06,21,02,18,13.60
2015,06,21,02,19,13.60
2015,06,21,02,20,13.60
2015,06,21,02,21,13.60
2015,06,21,02,22,13.60
2015,06,21,02,23,13.60
2015,06,21,02,24,13.60
2015,06,21,02,25,13.60
2015,06,21,02,26,13.60
2015,06,21,02,27,13.50
2015,06,21,02,28,13.60
2015,06,21,02,29,13.50
2015,06,21,02,30,13.50
2015,06,21,02,31,13.50
2015,06,21,02,32,13.50
2015,06,21,02,33,13.40
2015,06,21,02,34,13.40
2015,06,21,02,35,13.40
2015,06,21,02,36,13.40
2015,06,21,02,37,13.40
2015,06,21,02,38,13.40
2015,06,21,02,39,13.40
2015,06,21,02,40,13.40
2015,06,21,02,41,13.40
2015,06,21,02,42,13.40
2015,06,21,02,43,13.40
2015,06,21,02,44,13.30
2015,06,21,02,45,13.30
2015,06,21,02,46,13.30
2015,06,21,02,47,13.30
2015,06,21,02,48,13.30
2015,06,21,02,49,13.30
2015,06,21,02,50,13.30
2015,06,21,02,51,13.30
2015,06,21,02,52,13.20
2015,06,21,02,53,13.20
2015,06,21,02,54,13.20
2015,06,21,02,55,13.20
2015,06,21,02,56,13.20
2015,06,21,02,57,13.20
2015,06,21,02,58,13.20
2015,06,21,02,59,13.20
2015,06,21,03,00,13.10
2015,06,21,03,01,13.10
2015,06,21,03,02,13.10
2015,06,21,03,03,13.10
2015,06,21,03,04,13.10
2015,06,21,03,05,13.10
2015,06,21,03,06,13.10
2015,06,21,03,07,13.10
2015,06,21,03,08,13.10
2015,06,21,03,09,13.00
2015,06,21,03,10,13.00
2015,06,21,03,11,13.00
2015,06,21,03,12,13.00
2015,06,21,03,13,12.90
2015,06,21,03,14,12.90
2015,06,21,03,15,12.90
2015,06,21,03,16,12.90
2015,06,21,03,17,12.90
2015,06,21,03,18,12.90
2015,06,21,03,19,12.90
2015,06,21,03,20,12.80
2015,06,21,03,21,12.80
2015,06,21,03,22,12.80
2015,06,21,03,23,12.80
2015,06,21,03,24,12.80
2015,06,21,03,25,12.80
2015,06,21,03,26,12.80
2015,06,21,03,27,12.80
2015,06,21,03,28,12.80
2015,06,21,03,29,12.80
2015,06,21,03,30,12.80
2015,06,21,03,31,12.70
2015,06,21,03,32,12.70
2015,06,21,03,33,12.70
2015,06,21,03,34,12.70
2015,06,21,03,35,12.70
2015,06,21,03,36,12.70
2015,06,21,03,37,12.70
2015,06,21,03,38,12.70
2015,06,21,03,39,12.60
2015,06,21,03,40,12.60
2015,06,21,03,41,12.60
2015,06,21,03,42,12.60
2015,06,21,03,43,12.50
2015,06,21,03,44,12.40
2015,06,21,03,45,12.40
2015,06,21,03,46,12.30
2015,06,21,03,47,12.30
2015,06,21,03,48,12.20
2015,06,21,03,49,12.20
2015,06,21,03,50,12.10
2015,06,21,03,51,12.00
2015,06,21,03,52,11.90
2015,06,21,03,53,11.80
2015,06,21,03,54,11.80
2015,06,21,03,55,11.70
2015,06,21,03,56,11.60
2015,06,21,03,57,11.50
2015,06,21,03,58,11.40
2015,06,21,03,59,11.30
2015,06,21,04,00,11.20
2015,06,21,04,01,11.10
2015,06,21,04,02,11.00
2015,06,21,04,03,10.90
2015,06,21,04,04,10.80
2015,06,21,04,05,10.70
2015,06,21,04,06,10.60
2015,06,21,04,07,10.50
2015,06,21,04,08,10.40
2015,06,21,04,09,10.30
2015,06,21,04,10,10.30
2015,06,21,04,11,10.20
2015,06,21,04,12,10.10
2015,06,21,04,13,10.00
2015,06,21,04,14,9.90
2015,06,21,04,15,9.80
2015,06,21,04,16,9.70
2015,06,21,04,17,9.70
2015,06,21,04,18,9.60
2015,06,21,04,19,9.60
2015,06,21,04,20,9.50
2015,06,21,04,21,9.40
2015,06,21,04,22,9.40
2015,06,21,04,23,9.30
2015,06,21,04,24,9.20
2015,06,21,04,25,9.20
2015,06,21,04,26,9.20
2015,06,21,04,27,9.10
2015,06,21,04,28,9.10
2015,06,21,04,29,9.10
2015,06,21,04,30,9.00
2015,06,21,04,31,9.00
2015,06,21,04,32,9.00
2015,06,21,04,33,9.00
2015,06,21,04,34,9.00
2015,06,21,04,35,9.00
2015,06,21,04,36,9.00
2015,06,21,04,37,9.00
2015,06,21,04,38,8.90
2015,06,21,04,39,8.90
2015,06,21,04,40,8.90
2015,06,21,04,41,8.80
2015,06,21,04,42,8.80
2015,06,21,04,43,8.80
2015,06,21,04,44,8.80
2015,06,21,04,45,8.70
2015,06,21,04,46,8.70
2015,06,21,04,47,8.70
2015,06,21,04,48,8.70
2015,06,21,04,49,8.70
2015,06,21,04,50,8.70
2015,06,21,04,51,8.60
2015,06,21,04,52,8.60
2015,06,21,04,53,8.50
2015,06,21,04,54,8.50
2015,06,21,04,55,8.40
2015,06,21,04,56,8.40
2015,06,21,04,57,8.40
2015,06,21,04,58,8.30
2015,06,21,04,59,8.30
2015,06,21,05,00,8.30
2015,06,21,05,01,8.20
2015,06,21,05,02,8.20
2015,06,21,05,03,8.20
2015,06,21,05,04,8.20
2015,06,21,05,05,8.10
2015,06,21,05,06,8.10
2015,06,21,05,07,8.10
2015,06,21,05,08,8.00
2015,06,21,05,09,8.00
2015,06,21,05,10,8.00
2015,06,21,05,11,7.90
2015,06,21,05,12,7.90
2015,06,21,05,13,7.80
2015,06,21,05,14,7.80
2015,06,21,05,15,7.80
2015,06,21,05,16,7.80
2015,06,21,05,17,7.80
2015,06,21,05,18,7.70
2015,06,21,05,19,7.70
2015,06,21,05,20,7.70
2015,06,21,05,21,7.70
2015,06,21,05,22,7.70
2015,06,21,05,23,7.70
2015,06,21,05,24,7.70
2015,06,21,05,25,7.60
2015,06,21,05,26,7.60
2015,06,21,05,27,7.60
2015,06,21,05,28,7.70
2015,06,21,05,29,7.70
2015,06,21,05,30,7.70
2015,06,21,05,31,7.70
2015,06,21,05,32,7.70
2015,06,21,05,33,7.70
2015,06,21,05,34,7.60
2015,06,21,05,35,7.60
2015,06,21,05,36,7.60
2015,06,21,05,37,7.60
2015,06,21,05,38,7.60
2015,06,21,05,39,7.60
2015,06,21,05,40,7.60
2015,06,21,05,41,7.60
2015,06,21,05,42,7.50
2015,06,21,05,43,7.50
2015,06,21,05,44,7.50
2015,06,21,05,45,7.40
2015,06,21,05,46,7.40
2015,06,21,05,47,7.40
2015,06,21,05,48,7.30
2015,06,21,05,49,7.30
2015,06,21,05,50,7.30
2015,06,21,05,51,7.20
2015,06,21,05,52,7.20
2015,06,21,05,53,7.20
2015,06,21,05,54,7.20
2015,06,21,05,55,7.20
2015,06,21,05,56,7.20
2015,06,21,05,57,7.20
2015,06,21,05,58,7.20
2015,06,21,05,59,7.20
2015,06,21,06,00,7.20
2015,06,21,06,01,7.20
2015,06,21,06,02,7.20
2015,06,21,06,03,7.20
2015,06,21,06,04,7.20
2015,06,21,06,05,7.20
2015,06,21,06,06,7.20
2015,06,21,06,07,7.20
2015,06,21,06,08,7.20
2015,06,21,06,09,7.20
2015,06,21,06,10,7.30
2015,06,21,06,11,7.30
2015,06,21,06,12,7.30
2015,06,21,06,13,7.30
2015,06,21,06,14,7.30
2015,06,21,06,15,7.40
2015,06,21,06,16,7.40
2015,06,21,06,17,7.40
2015,06,21,06,18,7.50
2015,06,21,06,19,7.50
2015,06,21,06,20,7.50
2015,06,21,06,21,7.50
2015,06,21,06,22,7.60
2015,06,21,06,23,7.60
2015,06,21,06,24,7.60
2015,06,21,06,25,7.70
2015,06,21,06,26,7.70
2015,06,21,06,27,7.80
2015,06,21,06,28,7.80
2015,06,21,06,29,7.80
2015,06,21,06,30,7.90
2015,06,21,06,31,8.00
2015,06,21,06,32,8.10
2015,06,21,06,33,8.20
2015,06,21,06,34,8.20
2015,06,21,06,35,8.30
2015,06,21,06,36,8.30
2015,06,21,06,37,8.40
2015,06,21,06,38,8.40
2015,06,21,06,39,8.40
2015,06,21,06,40,8.40
2015,06,21,06,41,8.40
2015,06,21,06,42,8.40
2015,06,21,06,43,8.40
2015,06,21,06,44,8.40
2015,06,21,06,45,8.50
2015,06,21,06,46,8.50
2015,06,21,06,47,8.60
2015,06,21,06,48,8.70
2015,06,21,06,49,8.80
2015,06,21,06,50,8.80
2015,06,21,06,51,9.00
2015,06,21,06,52,9.00
2015,06,21,06,53,9.10
2015,06,21,06,54,9.20
2015,06,21,06,55,9.30
2015,06,21,06,56,9.30
2015,06,21,06,57,9.40
2015,06,21,06,58,9.50
2015,06,21,06,59,9.60
2015,06,21,07,00,9.70
2015,06,21,07,01,9.80
2015,06,21,07,02,9.90
2015,06,21,07,03,9.90
2015,06,21,07,04,10.00
2015,06,21,07,05,10.10
2015,06,21,07,06,10.10
2015,06,21,07,07,10.20
2015,06,21,07,08,10.20
2015,06,21,07,09,10.30
2015,06,21,07,10,10.30
2015,06,21,07,11,10.40
2015,06,21,07,12,10.40
2015,06,21,07,13,10.50
2015,06,21,07,14,10.60
2015,06,21,07,15,10.60
2015,06,21,07,16,10.70
2015,06,21,07,17,10.80
2015,06,21,07,18,10.80
2015,06,21,07,19,10.90
2015,06,21,07,20,10.90
2015,06,21,07,21,11.00
2015,06,21,07,22,11.00
2015,06,21,07,23,11.10
2015,06,21,07,24,11.10
2015,06,21,07,25,11.20
2015,06,21,07,26,11.20
2015,06,21,07,27,11.30
2015,06,21,07,28,11.30
2015,06,21,07,29,11.40
2015,06,21,07,30,11.40
2015,06,21,07,31,11.50
2015,06,21,07,32,11.50
2015,06,21,07,33,11.60
2015,06,21,07,34,11.70
2015,06,21,07,35,11.80
2015,06,21,07,36,11.80
2015,06,21,07,37,11.90
2015,06,21,07,38,12.10
2015,06,21,07,39,12.20
2015,06,21,07,40,12.30
2015,06,21,07,41,12.40
2015,06,21,07,42,12.50
2015,06,21,07,43,12.50
2015,06,21,07,44,12.60
2015,06,21,07,45,12.70
2015,06,21,07,46,12.70
2015,06,21,07,47,12.80
2015,06,21,07,48,12.80
2015,06,21,07,49,12.90
2015,06,21,07,50,12.90
2015,06,21,07,51,13.00
2015,06,21,07,52,13.00
2015,06,21,07,53,13.10
2015,06,21,07,54,13.10
2015,06,21,07,55,13.20
2015,06,21,07,56,13.20
2015,06,21,07,57,13.20
2015,06,21,07,58,13.20
2015,06,21,07,59,13.30
2015,06,21,08,00,13.30
2015,06,21,08,01,13.30
2015,06,21,08,02,13.40
2015,06,21,08,03,13.40
2015,06,21,08,04,13.40
2015,06,21,08,05,13.50
2015,06,21,08,06,13.50
2015,06,21,08,07,13.60
2015,06,21,08,08,13.60
2015,06,21,08,09,13.60
2015,06,21,08,10,13.60
2015,06,21,08,11,13.70
2015,06,21,08,12,13.70
2015,06,21,08,13,13.70
2015,06,21,08,14,13.70
2015,06,21,08,15,13.80
2015,06,21,08,16,13.80
2015,06,21,08,17,13.80
2015,06,21,08,18,13.80
2015,06,21,08,19,13.90
2015,06,21,08,20,13.90
2015,06,21,08,21,13.90
2015,06,21,08,22,14.00
2015,06,21,08,23,14.00
2015,06,21,08,24,14.00
2015,06,21,08,25,14.10
2015,06,21,08,26,14.10
2015,06,21,08,27,14.20
2015,06,21,08,28,14.20
2015,06,21,08,29,14.20
2015,06,21,08,30,14.20
2015,06,21,08,31,14.20
2015,06,21,08,32,14.30
2015,06,21,08,33,14.30
2015,06,21,08,34,14.40
2015,06,21,08,35,14.40
2015,06,21,08,36,14.50
2015,06,21,08,37,14.60
2015,06,21,08,38,14.60
2015,06,21,08,39,14.70
2015,06,21,08,40,14.70
2015,06,21,08,41,14.80
2015,06,21,08,42,14.80
2015,06,21,08,43,14.80
2015,06,21,08,44,14.80
2015,06,21,08,45,14.80
2015,06,21,08,46,14.90
2015,06,21,08,47,14.90
2015,06,21,08,48,15.00
2015,06,21,08,49,15.00
2015,06,21,08,50,15.10
2015,06,21,08,51,15.10
2015,06,21,08,52,15.10
2015,06,21,08,53,15.20
2015,06,21,08,54,15.20
2015,06,21,08,55,15.20
2015,06,21,08,56,15.30
2015,06,21,08,57,15.30
2015,06,21,08,58,15.40
2015,06,21,08,59,15.40
2015,06,21,09,00,15.50
2015,06,21,09,01,15.50
2015,06,21,09,02,15.60
2015,06,21,09,03,15.60
2015,06,21,09,04,15.60
2015,06,21,09,05,15.60
2015,06,21,09,06,15.60
2015,06,21,09,07,15.60
2015,06,21,09,08,15.60
2015,06,21,09,09,15.60
2015,06,21,09,10,15.60
2015,06,21,09,11,15.60
2015,06,21,09,12,15.60
2015,06,21,09,13,15.60
2015,06,21,09,14,15.60
2015,06,21,09,15,15.70
2015,06,21,09,16,15.80
2015,06,21,09,17,15.80
2015,06,21,09,18,15.90
2015,06,21,09,19,15.90
2015,06,21,09,20,16.00
2015,06,21,09,21,16.00
2015,06,21,09,22,16.10
2015,06,21,09,23,16.10
2015,06,21,09,24,16.20
2015,06,21,09,25,16.30
2015,06,21,09,26,16.40
2015,06,21,09,27,16.50
2015,06,21,09,28,16.50
2015,06,21,09,29,16.50
2015,06,21,09,30,16.50
2015,06,21,09,31,16.50
2015,06,21,09,32,16.50
2015,06,21,09,33,16.50
2015,06,21,09,34,16.50
2015,06,21,09,35,16.40
2015,06,21,09,36,16.40
2015,06,21,09,37,16.40
2015,06,21,09,38,16.40
2015,06,21,09,39,16.40
2015,06,21,09,40,16.50
2015,06,21,09,41,16.50
2015,06,21,09,42,16.60
2015,06,21,09,43,16.60
2015,06,21,09,44,16.60
2015,06,21,09,45,16.60
2015,06,21,09,46,16.60
2015,06,21,09,47,16.70
2015,06,21,09,48,16.60
2015,06,21,09,49,16.60
2015,06,21,09,50,16.60
2015,06,21,09,51,16.70
2015,06,21,09,52,16.70
2015,06,21,09,53,16.70
2015,06,21,09,54,16.70
2015,06,21,09,55,16.70
2015,06,21,09,56,16.80
2015,06,21,09,57,16.80
2015,06,21,09,58,16.80
2015,06,21,09,59,16.90
2015,06,21,10,00,16.90
2015,06,21,10,01,16.80
2015,06,21,10,02,16.80
2015,06,21,10,03,16.80
2015,06,21,10,04,16.80
2015,06,21,10,05,16.80
2015,06,21,10,06,16.90
2015,06,21,10,07,16.90
2015,06,21,10,08,17.00
2015,06,21,10,09,17.10
2015,06,21,10,10,17.20
2015,06,21,10,11,17.30
2015,06,21,10,12,17.30
2015,06,21,10,13,17.30
2015,06,21,10,14,17.30
2015,06,21,10,15,17.30
2015,06,21,10,16,17.30
2015,06,21,10,17,17.30
2015,06,21,10,18,17.30
2015,06,21,10,19,17.40
2015,06,21,10,20,17.40
2015,06,21,10,21,17.40
2015,06,21,10,22,17.40
2015,06,21,10,23,17.40
2015,06,21,10,24,17.50
2015,06,21,10,25,17.50
2015,06,21,10,26,17.50
2015,06,21,10,27,17.50
2015,06,21,10,28,17.60
2015,06,21,10,29,17.60
2015,06,21,10,30,17.60
2015,06,21,10,31,17.60
2015,06,21,10,32,17.70
2015,06,21,10,33,17.80
2015,06,21,10,34,17.80
2015,06,21,10,35,17.90
2015,06,21,10,36,17.90
2015,06,21,10,37,17.90
2015,06,21,10,38,17.90
2015,06,21,10,39,17.90
2015,06,21,10,40,17.90
2015,06,21,10,41,18.00
2015,06,21,10,42,18.00
2015,06,21,10,43,18.10
2015,06,21,10,44,18.10
2015,06,21,10,45,18.20
2015,06,21,10,46,18.20
2015,06,21,10,47,18.20
2015,06,21,10,48,18.30
2015,06,21,10,49,18.30
2015,06,21,10,50,18.30
2015,06,21,10,51,18.30
2015,06,21,10,52,18.30
2015,06,21,10,53,18.40
2015,06,21,10,54,18.50
2015,06,21,10,55,18.60
2015,06,21,10,56,18.70
2015,06,21,10,57,18.70
2015,06,21,10,58,18.70
2015,06,21,10,59,18.80
2015,06,21,11,00,18.80
2015,06,21,11,01,18.80
2015,06,21,11,02,18.80
2015,06,21,11,03,18.80
2015,06,21,11,04,18.90
2015,06,21,11,05,18.90
2015,06,21,11,06,18.90
2015,06,21,11,07,18.90
2015,06,21,11,08,18.90
2015,06,21,11,09,18.90
2015,06,21,11,10,18.90
2015,06,21,11,11,18.90
2015,06,21,11,12,18.90
2015,06,21,11,13,18.80
2015,06,21,11,14,18.70
2015,06,21,11,15,18.70
2015,06,21,11,16,18.70
2015,06,21,11,17,18.80
2015,06,21,11,18,18.80
2015,06,21,11,19,18.90
2015,06,21,11,20,19.00
2015,06,21,11,21,19.00
2015,06,21,11,22,19.10
2015,06,21,11,23,19.10
2015,06,21,11,24,19.10
2015,06,21,11,25,19.10
2015,06,21,11,26,19.20
2015,06,21,11,27,19.20
2015,06,21,11,28,19.20
2015,06,21,11,29,19.20
2015,06,21,11,30,19.30
2015,06,21,11,31,19.30
2015,06,21,11,32,19.30
2015,06,21,11,33,19.40
2015,06,21,11,34,19.40
2015,06,21,11,35,19.50
2015,06,21,11,36,19.60
2015,06,21,11,37,19.70
2015,06,21,11,38,19.80
2015,06,21,11,39,19.90
2015,06,21,11,40,19.90
2015,06,21,11,41,19.90
2015,06,21,11,42,20.00
2015,06,21,11,43,20.00
2015,06,21,11,44,20.00
2015,06,21,11,45,20.00
2015,06,21,11,46,19.90
2015,06,21,11,47,19.90
2015,06,21,11,48,20.00
2015,06,21,11,49,20.00
2015,06,21,11,50,20.10
2015,06,21,11,51,20.20
2015,06,21,11,52,20.30
2015,06,21,11,53,20.30
2015,06,21,11,54,20.40
2015,06,21,11,55,20.40
2015,06,21,11,56,20.50
2015,06,21,11,57,20.50
2015,06,21,11,58,20.60
2015,06,21,11,59,20.60
2015,06,21,12,00,20.60
2015,06,21,12,01,20.60
2015,06,21,12,02,20.50
2015,06,21,12,03,20.50
2015,06,21,12,04,20.40
2015,06,21,12,05,20.40
2015,06,21,12,06,20.40
2015,06,21,12,07,20.40
2015,06,21,12,08,20.50
2015,06,21,12,09,20.50
2015,06,21,12,10,20.50
2015,06,21,12,11,20.60
2015,06,21,12,12,20.60
2015,06,21,12,13,20.60
2015,06,21,12,14,20.60
2015,06,21,12,15,20.60
2015,06,21,12,16,20.60
2015,06,21,12,17,20.60
2015,06,21,12,18,20.60
2015,06,21,12,19,20.60
2015,06,21,12,20,20.60
2015,06,21,12,21,20.60
2015,06,21,12,22,20.70
2015,06,21,12,23,20.80
2015,06,21,12,24,20.90
2015,06,21,12,25,20.90
2015,06,21,12,26,21.00
2015,06,21,12,27,21.00
2015,06,21,12,28,21.00
2015,06,21,12,29,21.00
2015,06,21,12,30,21.00
2015,06,21,12,31,21.00
2015,06,21,12,32,21.10
2015,06,21,12,33,21.20
2015,06,21,12,34,21.30
2015,06,21,12,35,21.30
2015,06,21,12,36,21.40
2015,06,21,12,37,21.30
2015,06,21,12,38,21.20
2015,06,21,12,39,21.20
2015,06,21,12,40,21.20
2015,06,21,12,41,21.20
2015,06,21,12,42,21.30
2015,06,21,12,43,21.30
2015,06,21,12,44,21.30
2015,06,21,12,45,21.20
2015,06,21,12,46,21.20
2015,06,21,12,47,21.10
2015,06,21,12,48,21.20
2015,06,21,12,49,21.20
2015,06,21,12,50,21.30
2015,06,21,12,51,21.30
2015,06,21,12,52,21.30
2015,06,21,12,53,21.30
2015,06,21,12,54,21.20
2015,06,21,12,55,21.10
2015,06,21,12,56,21.00
2015,06,21,12,57,21.00
2015,06,21,12,58,21.00
2015,06,21,12,59,21.10
2015,06,21,13,00,21.20
2015,06,21,13,01,21.20
2015,06,21,13,02,21.20
2015,06,21,13,03,21.30
2015,06,21,13,04,21.30
2015,06,21,13,05,21.40
2015,06,21,13,06,21.50
2015,06,21,13,07,21.60
2015,06,21,13,08,21.70
2015,06,21,13,09,21.80
2015,06,21,13,10,21.90
2015,06,21,13,11,21.90
2015,06,21,13,12,21.90
2015,06,21,13,13,21.90
2015,06,21,13,14,21.90
2015,06,21,13,15,22.00
2015,06,21,13,16,22.00
2015,06,21,13,17,22.10
2015,06,21,13,18,22.20
2015,06,21,13,19,22.30
2015,06,21,13,20,22.30
2015,06,21,13,21,22.20
2015,06,21,13,22,22.20
2015,06,21,13,23,22.10
2015,06,21,13,24,22.10
2015,06,21,13,25,22.10
2015,06,21,13,26,22.10
2015,06,21,13,27,22.10
2015,06,21,13,28,22.20
2015,06,21,13,29,22.20
2015,06,21,13,30,22.20
2015,06,21,13,31,22.30
2015,06,21,13,32,22.30
2015,06,21,13,33,22.30
2015,06,21,13,34,22.40
2015,06,21,13,35,22.40
2015,06,21,13,36,22.50
2015,06,21,13,37,22.60
2015,06,21,13,38,22.70
2015,06,21,13,39,22.70
2015,06,21,13,40,22.60
2015,06,21,13,41,22.50
2015,06,21,13,42,22.50
2015,06,21,13,43,22.50
2015,06,21,13,44,22.50
2015,06,21,13,45,22.50
2015,06,21,13,46,22.50
2015,06,21,13,47,22.50
2015,06,21,13,48,22.60
2015,06,21,13,49,22.60
2015,06,21,13,50,22.60
2015,06,21,13,51,22.60
2015,06,21,13,52,22.60
2015,06,21,13,53,22.60
2015,06,21,13,54,22.70
2015,06,21,13,55,22.60
2015,06,21,13,56,22.60
2015,06,21,13,57,22.60
2015,06,21,13,58,22.60
2015,06,21,13,59,22.70
2015,06,21,14,00,22.80
2015,06,21,14,01,22.90
2015,06,21,14,02,23.00
2015,06,21,14,03,23.10
2015,06,21,14,04,23.20
2015,06,21,14,05,23.30
2015,06,21,14,06,23.20
2015,06,21,14,07,23.10
2015,06,21,14,08,23.00
2015,06,21,14,09,22.90
2015,06,21,14,10,22.90
2015,06,21,14,11,22.90
2015,06,21,14,12,22.90
2015,06,21,14,13,22.90
2015,06,21,14,14,23.00
2015,06,21,14,15,23.10
2015,06,21,14,16,23.10
2015,06,21,14,17,23.20
2015,06,21,14,18,23.20
2015,06,21,14,19,23.30
2015,06,21,14,20,23.30
2015,06,21,14,21,23.30
2015,06,21,14,22,23.30
2015,06,21,14,23,23.40
2015,06,21,14,24,23.40
2015,06,21,14,25,23.40
2015,06,21,14,26,23.40
2015,06,21,14,27,23.40
2015,06,21,14,28,23.50
2015,06,21,14,29,23.60
2015,06,21,14,30,23.70
2015,06,21,14,31,23.80
2015,06,21,14,32,23.90
2015,06,21,14,33,24.00
2015,06,21,14,34,24.10
2015,06,21,14,35,24.20
2015,06,21,14,36,24.30
2015,06,21,14,37,24.30
2015,06,21,14,38,24.20
2015,06,21,14,39,24.20
2015,06,21,14,40,24.10
2015,06,21,14,41,24.10
2015,06,21,14,42,24.00
2015,06,21,14,43,23.90
2015,06,21,14,44,23.90
2015,06,21,14,45,23.90
2015,06,21,14,46,23.90
2015,06,21,14,47,23.90
2015,06,21,14,48,24.00
2015,06,21,14,49,24.00
2015,06,21,14,50,24.00
2015,06,21,14,51,24.10
2015,06,21,14,52,24.10
2015,06,21,14,53,24.10
2015,06,21,14,54,24.10
2015,06,21,14,55,24.20
2015,06,21,14,56,24.20
2015,06,21,14,57,24.30
2015,06,21,14,58,24.40
2015,06,21,14,59,24.40
2015,06,21,15,00,24.40
2015,06,21,15,01,24.40
2015,06,21,15,02,24.50
2015,06,21,15,03,24.50
2015,06,21,15,04,24.50
2015,06,21,15,05,24.60
2015,06,21,15,06,24.60
2015,06,21,15,07,24.60
2015,06,21,15,08,24.50
2015,06,21,15,09,24.50
2015,06,21,15,10,24.40
2015,06,21,15,11,24.40
2015,06,21,15,12,24.40
2015,06,21,15,13,24.40
2015,06,21,15,14,24.50
2015,06,21,15,15,24.60
2015,06,21,15,16,24.70
2015,06,21,15,17,24.70
2015,06,21,15,18,24.70
2015,06,21,15,19,24.80
2015,06,21,15,20,24.90
2015,06,21,15,21,24.90
2015,06,21,15,22,25.00
2015,06,21,15,23,25.00
2015,06,21,15,24,24.90
2015,06,21,15,25,25.00
2015,06,21,15,26,25.00
2015,06,21,15,27,25.10
2015,06,21,15,28,25.10
2015,06,21,15,29,25.00
2015,06,21,15,30,25.00
2015,06,21,15,31,24.90
2015,06,21,15,32,24.90
2015,06,21,15,33,25.00
2015,06,21,15,34,25.00
2015,06,21,15,35,25.00
2015,06,21,15,36,25.10
2015,06,21,15,37,25.20
2015,06,21,15,38,25.30
2015,06,21,15,39,25.40
2015,06,21,15,40,25.50
2015,06,21,15,41,25.60
2015,06,21,15,42,25.70
2015,06,21,15,43,25.80
2015,06,21,15,44,25.80
2015,06,21,15,45,25.70
2015,06,21,15,46,25.70
2015,06,21,15,47,25.60
2015,06,21,15,48,25.50
2015,06,21,15,49,25.50
2015,06,21,15,50,25.40
2015,06,21,15,51,25.40
2015,06,21,15,52,25.40
2015,06,21,15,53,25.40
2015,06,21,15,54,25.40
2015,06,21,15,55,25.40
2015,06,21,15,56,25.30
2015,06,21,15,57,25.30
2015,06,21,15,58,25.20
2015,06,21,15,59,25.20
2015,06,21,16,00,25.30
2015,06,21,16,01,25.30
2015,06,21,16,02,25.30
2015,06,21,16,03,25.30
2015,06,21,16,04,25.40
2015,06,21,16,05,25.40
2015,06,21,16,06,25.40
2015,06,21,16,07,25.40
2015,06,21,16,08,25.40
2015,06,21,16,09,25.30
2015,06,21,16,10,25.30
2015,06,21,16,11,25.30
2015,06,21,16,12,25.30
2015,06,21,16,13,25.30
2015,06,21,16,14,25.20
2015,06,21,16,15,25.20
2015,06,21,16,16,25.30
2015,06,21,16,17,25.30
2015,06,21,16,18,25.40
2015,06,21,16,19,25.50
2015,06,21,16,20,25.60
2015,06,21,16,21,25.70
2015,06,21,16,22,25.70
2015,06,21,16,23,25.70
2015,06,21,16,24,25.70
2015,06,21,16,25,25.70
2015,06,21,16,26,25.80
2015,06,21,16,27,25.80
2015,06,21,16,28,25.90
2015,06,21,16,29,26.00
2015,06,21,16,30,26.00
2015,06,21,16,31,26.10
2015,06,21,16,32,26.00
2015,06,21,16,33,26.00
2015,06,21,16,34,25.90
2015,06,21,16,35,25.90
2015,06,21,16,36,25.90
2015,06,21,16,37,25.90
2015,06,21,16,38,25.80
2015,06,21,16,39,25.80
2015,06,21,16,40,25.80
2015,06,21,16,41,25.80
2015,06,21,16,42,25.80
2015,06,21,16,43,25.90
2015,06,21,16,44,25.90
2015,06,21,16,45,25.90
2015,06,21,16,46,25.90
2015,06,21,16,47,25.80
2015,06,21,16,48,25.80
2015,06,21,16,49,25.80
2015,06,21,16,50,25.80
2015,06,21,16,51,25.80
2015,06,21,16,52,25.80
2015,06,21,16,53,25.90
2015,06,21,16,54,25.90
2015,06,21,16,55,25.90
2015,06,21,16,56,26.00
2015,06,21,16,57,26.00
2015,06,21,16,58,25.90
2015,06,21,16,59,25.90
2015,06,21,17,00,25.80
2015,06,21,17,01,25.70
2015,06,21,17,02,25.70
2015,06,21,17,03,25.70
2015,06,21,17,04,25.70
2015,06,21,17,05,25.70
2015,06,21,17,06,25.70
2015,06,21,17,07,25.70
2015,06,21,17,08,25.70
2015,06,21,17,09,25.80
2015,06,21,17,10,25.80
2015,06,21,17,11,25.80
2015,06,21,17,12,25.70
2015,06,21,17,13,25.70
2015,06,21,17,14,25.70
2015,06,21,17,15,25.70
2015,06,21,17,16,25.60
2015,06,21,17,17,25.60
2015,06,21,17,18,25.60
2015,06,21,17,19,25.50
2015,06,21,17,20,25.40
2015,06,21,17,21,25.30
2015,06,21,17,22,25.30
2015,06,21,17,23,25.20
2015,06,21,17,24,25.10
2015,06,21,17,25,25.10
2015,06,21,17,26,25.10